OneWeb SL0133

operational
NORAD ID: 47263 Int'l Des: 2020-100 Owner: ONEWEB Country: UK Constellation: oneweb
LEOCIRCULARPOLARONEWEB_TYPE

About OneWeb SL0133

Description loading...

Live Position

Loading 3D Globe...

Upcoming Passes

Altitude History

Altitude vs Time

uPlot chart will show altitude changes over time

Two-Line Element Set

1 47263U 20100F 26035.95057984 .00000015 00000-0 50530-5 0 9992
2 47263 87.8950 16.8967 0001768 86.6267 273.5064 13.12442288247189
Epoch: Feb 4, 2026 • Age: 14 hours

Current Status

Altitude 1217.9 km
Velocity 7.25 km/s
Sub-Earth Point 36.19°N, 125.7°W
Launch Date Dec 18, 2020
Age 5.1 years
Type internet

Technical Details

Classification Payload
Mass 148.00 kg
Dry Mass 140.00 kg
Total Mass 148.00 kg
Length 1.30 m
Diameter 1.00 m
Span 5.00 m
Shape Trapezoid+2 pan
Manufacturer ONEWUS
Bus Type ARROW
Phase Status In Orbit
Owner/State ONEWEB/UK

Large Constellations

Loading constellations...